FENGYUN 1C DEB

Satellite information

Favourite Embed

Satellite Type and Status

DEBRISIN ORBIT

Key statistics

Satellite FENGYUN 1C DEB at a glance.

Uptime

9617

Days in orbit

Revolutions

≈ 14.0

Per day

Orbit

SSO

Sun Synchronous Orbit

Inclination

98.7

Latest

Satellite identification and parameters

Extended collection of information and parameters for FENGYUN 1C DEB.

Object identification

Identified? True

Debris? True

Object name: FENGYUN 1C DEB

International designator: 1999-025DEZ

Object number (NORAD): 33664

Object ID (CCSDS): 33664

Country: PEOPLES REPUBLIC OF CHINA (PRC)

Current information (Y/N): Y

RCS size: SMALL

Orbital parameters

Period: 102.58 minutes

Inclination: 98.6936 deg

SMA: 7258.863 km

Apoapsis: 999.341 km

Periapsis: 762.115 km

RAAN: 40.6202 deg

Eccentricy: 0.01634046

Argument of periapsis: 318.2554 deg

Mean anomaly: 40.624 deg

Mean motion: 14.03782615 rev/day

Mean motion (dot): 0.00000667 rev/day2

B* drag term: 0.00040079352 1/REarth

Two-line elements (TLE)

Creation date: Sept. 5, 2025, 4:46 a.m.

Reference frame: TEME

Reference center: EARTH

Epoch: Sept. 4, 2025, 4:25 p.m. UTC

TLE line 0: 0 FENGYUN 1C DEB

TLE line 1: 1 33664U 99025DEZ 25247.68458539 .00000667 00000-0 40079-3 0 9997

TLE line 2: 2 33664 98.6936 40.6202 0163405 318.2554 40.6240 14.03782615893492

Live tracking on map

Real-time ground track for satellite FENGYUN 1C DEB.

In-orbit conjunctions

A list of the most updated potential collisions computed for object FENGYUN 1C DEB.

Target Orbit TCA Probability of collision Miss distance Type
PEGASUS DEB LEO 2025-01-08 01:50:51 0.0001480078 172.0 (m) DEBRIS
THORAD AGENA D DEB SSO 2024-10-02 02:36:00 0.0001333792 113.0 (m) DEBRIS
SL-8 R/B LEO 2024-09-16 00:29:30 0.0003153304 341.0 (m) ROCKET BODY

Associated space launch

Chinese polar orbiting meteorological satellite

FENGYUN 1C DEB was lifted into orbit during the mission ‘Long March 4B | Feng Yun 1C’, on board a Long March 4B space rocket.

The launch took place on May 10, 1999, 1:33 a.m. from Launch Complex 7.

For more information about the launch, click the button.

Launch to space Long March 4B | Feng Yun 1C
Long March 4B | Feng Yun 1C

Agency: N/A

Status: Launch Successful

Launch date: May 10, 1999, 1:33 a.m. UTC

Rocket: Long March 4B

Launch pad: Launch Complex 7

Location: Taiyuan Satellite Launch Center, People's Republic of China

...

Latest news about this satellite

There are no fresh news available about this satellite. Check back as we update our databases every day.


Newsletter sign-up

Weekly statistics, charts and insights to help you stay on top of the space industry.